Location: Cape Canaveral
(28.3922°N, 80.6077°W)
Time: 18:51:27
(UTC-04:00)

ISS - Pass Details

Date: 17 September 2021
Orbit: 417 x 423 km, 51.6° (Epoch: 27 October)

Event Time Altitude Azimuth Distance (km) Brightness Sun altitude
Rises 20:05:19 0° 244° (WSW) 2,346 1.1 -9.8°
Reaches altitude 10° 20:07:35 10° 256° (WSW) 1,487 0.3 -10.3°
Maximum altitude 20:10:31 28° 318° (NW) 815 -1.7 -10.9°
Drops below altitude 10° 20:13:28 10° 19° (NNE) 1,495 -1.1 -11.6°
Sets 20:15:46 0° 32° (NNE) 2,362 -0.2 -12.1°
